Tracking 20719 objects as of 25-May-2020
HD Live streaming from Space Station
objects crossing your sky now

SL-8 DEB

Track SL-8 DEB now!
10-day predictions


NORAD ID: 29285
Int'l Code: 1981-120P
Perigee: 1,589.1 km
Apogee: 1,668.7 km
Inclination: 83.0 °
Period: 118.7 minutes
Semi major axis: 7999 km
RCS: 0.0058 m2 (small)
Launch date: December 17, 1981
Source: Commonwealth of Independent States (former USSR) (CIS)
Launch site: PLESETSK MISSILE AND SPACE COMPLEX (PKMTR)

Note: This is SATELLITE DEBRIS
aabbcc
Your satellite tracking list
Your tracking list is empty




NASA's NSSDC Master Catalog

Two Line Element Set (TLE):
1 29285U 81120P   20142.59737846  .00000049  00000-0  41224-3 0  9995
2 29285  82.9561  91.1194 0049782  39.1966 137.3458 12.13322884697746
Source of the keplerian elements: AFSPC